Miscellaneous Local Product
Issued by NWS Hastings, NE

Home | Current Version | Previous Version | Graphics & Text | Print | Product List | Glossary On
Versions: 1 2 3 4 5 6 7 8 9 10 11 12 13 14 15 16 17 18 19 20 21 22 23 24 25 26 27 28 29 30 31 32 33 34 35 36 37 38 39 40 41 42 43 44 45 46 47 48 49 50
634
AXUS43 KGID 232202
MISGRI

GID CWA HOURLY WEATHER ROUNDUP
NATIONAL WEATHER SERVICE HASTINGS NE
400 PM CST FRI FEB 23 2018

NOTE: "FAIR" INDICATES FEW OR NO CLOUDS BELOW 12,000 FEET WITH NO
SIGNIFICANT WEATHER AND/OR OBSTRUCTIONS TO VISIBILITY.

...SOUTH CENTRAL NEBRASKA...

CITY           SKY/WX    TMP DP  RH WIND       PRES   REMARKS
GRAND ISLAND   CLOUDY    25  20  81 N5        30.24F WCI  19
KEARNEY        CLOUDY    27  22  81 NE8       30.21F WCI  19
HASTINGS       PTSUNNY   28  21  75 NE8       30.22F WCI  20
ORD            SUNNY     27  17  66 CALM      30.22F
YORK           PTSUNNY   28  25  86 NE7       30.26F WCI  21
AURORA         CLOUDY    27  23  85 N6        30.24F WCI  20
LEXINGTON      CLOUDY    28  22  81 NE6       30.19F WCI  21
HOLDREGE       SUNNY     32  24  71 NE10      30.17F WCI  24
HEBRON         PTSUNNY   34  28  79 NE8       30.23F WCI  27

...NEBRASKA PANHANDLE...

CITY           SKY/WX    TMP DP  RH WIND       PRES   REMARKS
CHADRON        SUNNY     19   6  57 NE5       30.11F WCI  12
ALLIANCE       MOSUNNY   22  14  71 SE7       30.07F WCI  13
SCOTTSBLUFF    MOSUNNY   25  14  63 E13       30.05F WCI  14
SIDNEY         SUNNY     31  17  56 E13       30.03F WCI  21

...WESTERN AND NORTH CENTRAL NEBRASKA...

CITY           SKY/WX    TMP DP  RH WIND       PRES   REMARKS
VALENTINE      MOSUNNY   23  11  60 S3        30.19S
AINSWORTH      SUNNY     22  15  73 SE3       30.20S
ONEILL         SUNNY     20  15  82 S3        30.26S
BROKEN BOW     SUNNY     24  16  71 NE6       30.19F WCI  17
IMPERIAL       SUNNY     30  21  69 NE13      30.09F WCI  20
NORTH PLATTE   SUNNY     27  18  69 E12       30.16F WCI  17
MCCOOK         SUNNY     37  25  61 E10       30.12F WCI  30

...EASTERN NEBRASKA...

CITY           SKY/WX    TMP DP  RH WIND       PRES   REMARKS
NORFOLK        SUNNY     25  19  78 VRB7      30.26F WCI  17
SO SIOUX CITY  CLOUDY    22  18  85 NW12      30.32S WCI  10
TEKAMAH        PTSUNNY   26  20  77 NW9       30.31S WCI  17
COLUMBUS       CLOUDY    26  21  81 NW5       30.29S WCI  20
ALBION         CLOUDY    27  20  76 N3        30.26S
OMAHA EPPLEY   MOSUNNY   28  22  78 N13       30.30F WCI  17
MILLARD        SUNNY     29  22  75 N5        30.29F WCI  24
LINCOLN        MOSUNNY   33  25  72 NE9       30.28F WCI  25
NEBRASKA CITY  MOSUNNY   33  29  88 N10       30.26F WCI  24
BEATRICE       PTSUNNY   34  29  82 NE8       30.25F WCI  28
FALLS CITY     CLOUDY    37  27  67 N7        30.24F WCI  32

...NORTHERN KANSAS...

CITY           SKY/WX    TMP DP  RH WIND       PRES   REMARKS
GOODLAND       SUNNY     38  22  52 SE16G22   30.03F WCI  29
HILL CITY      SUNNY     35  24  64 E7        30.17S WCI  29
NORTON         PTCLDY    37  19  48 E9        30.13F WCI  31
PHILLIPSBURG   SUNNY     39  25  56 E8        30.17F WCI  34
SMITH CENTER   SUNNY     39  25  56 NE9       30.18F WCI  33
BELOIT         SUNNY     37  25  60 E10       30.21F WCI  30
HAYS           CLOUDY    36  26  67 NE8       30.16F WCI  30
RUSSELL        MOSUNNY   41  28  60 E10       30.16F
CONCORDIA      MOSUNNY   37  27  67 E7        30.21F WCI  32
SALINA         CLOUDY    38  29  70 VRB7      30.21F WCI  33
TOPEKA         CLOUDY    35  30  82 NE5       30.26S WCI  31



USA.gov is the U.S. government's official web portal to all federal, state and local government web resources and services.